QPF
0.01 0.01 0.01 0.02 0.03 0.03 0.02 0.02 0.02 0.02 0.01 0.02 0.02 0.03 0.04 0.04 0.04 0.03 0.03 0.03 0.03 0.05 0.05 0.04 0.06 0.08 0.06 0.04 0.02 0.02 0.01 0.01 0.01 0.01 0.02 0.03 0.02 0.01 0.01 0.01 0.01 0.01 0.01
0.01 0.01 0.01 0.02 0.02 0.02 0.02 0.02 0.01 0.01 0.01 0.02 0.03 0.03 0.03 0.04 0.06 0.05 0.04 0.04 0.03 0.04 0.04 0.05 0.05 0.05 0.05 0.04 0.02 0.01 0.01 0.01 0.01 0.01 0.01 0.02 0.02 0.01 0.01 0.01 0.01 0.01 0.02
0.01 0.01 0.01 0.02 0.02 0.02 0.02 0.02 0.02 0.02 0.02 0.02 0.02 0.02 0.02 0.04 0.05 0.05 0.04 0.04 0.03 0.04 0.04 0.05 0.05 0.05 0.04 0.04 0.03 0.02 0.01 0.01 0.00 0.01 0.02 0.02 0.01 0.01 0.01 0.01 0.02 0.01 0.01
0.01 0.01 0.02 0.02 0.02 0.02 0.02 0.02 0.02 0.03 0.03 0.03 0.02 0.01 0.02 0.03 0.04 0.05 0.05 0.05 0.05 0.04 0.03 0.03 0.04 0.04 0.02 0.03 0.03 0.02 0.01 0.01 0.00 0.01 0.02 0.03 0.02 0.01 0.01 0.01 0.02 0.01 0.01
0.01 0.02 0.03 0.03 0.03 0.03 0.02 0.02 0.02 0.02 0.03 0.03 0.02 0.02 0.02 0.03 0.04 0.05 0.05 0.05 0.05 0.04 0.04 0.04 0.05 0.03 0.01 0.01 0.02 0.02 0.02 0.01 0.00 0.01 0.02 0.03 0.02 0.02 0.01 0.02 0.01 0.01 0.01
0.01 0.02 0.02 0.03 0.04 0.05 0.04 0.03 0.03 0.03 0.03 0.03 0.03 0.03 0.03 0.03 0.03 0.04 0.05 0.04 0.04 0.05 0.05 0.05 0.05 0.03 0.02 0.01 0.01 0.01 0.03 0.03 0.01 0.02 0.02 0.03 0.02 0.02 0.02 0.01 0.01 0.01 0.01
0.01 0.01 0.02 0.04 0.06 0.06 0.05 0.05 0.05 0.06 0.06 0.05 0.03 0.04 0.05 0.04 0.04 0.04 0.05 0.07 0.07 0.07 0.08 0.06 0.05 0.04 0.02 0.01 0.01 0.01 0.01 0.03 0.03 0.02 0.01 0.02 0.02 0.01 0.01 0.01 0.01 0.01 0.01
0.01 0.01 0.02 0.03 0.04 0.04 0.04 0.06 0.07 0.07 0.07 0.07 0.06 0.06 0.08 0.05 0.03 0.03 0.04 0.07 0.11 0.11 0.12 0.10 0.06 0.05 0.05 0.04 0.02 0.01 0.01 0.01 0.01 0.02 0.03 0.02 0.01 0.02 0.02 0.01 0.01 0.01 0.01
0.01 0.01 0.01 0.02 0.03 0.03 0.04 0.05 0.07 0.07 0.07 0.07 0.08 0.09 0.08 0.07 0.04 0.03 0.03 0.03 0.09 0.13 0.12 0.10 0.08 0.04 0.04 0.05 0.07 0.04 0.02 0.01 0.01 0.02 0.03 0.02 0.01 0.02 0.02 0.01 0.01 0.01 0.01
0.01 0.01 0.02 0.02 0.03 0.04 0.04 0.05 0.07 0.07 0.08 0.09 0.09 0.09 0.08 0.07 0.06 0.04 0.03 0.03 0.05 0.09 0.10 0.07 0.06 0.04 0.02 0.02 0.03 0.04 0.03 0.02 0.01 0.01 0.01 0.01 0.01 0.01 0.01 0.01 0.01 0.01 0.01
0.01 0.01 0.01 0.02 0.03 0.04 0.05 0.05 0.07 0.07 0.08 0.09 0.08 0.07 0.07 0.07 0.06 0.05 0.03 0.02 0.04 0.06 0.06 0.05 0.04 0.04 0.03 0.03 0.02 0.02 0.02 0.02 0.01 0.00 0.00 0.00 0.01 0.01 0.01 0.01 0.01 0.01 0.01
0.00 0.01 0.02 0.03 0.04 0.05 0.05 0.05 0.06 0.08 0.10 0.10 0.05 0.05 0.05 0.04 0.04 0.04 0.04 0.03 0.03 0.05 0.05 0.03 0.02 0.02 0.03 0.03 0.02 0.02 0.02 0.02 0.02 0.01 0.00 0.00 0.01 0.01 0.00 0.01 0.01 0.01 0.02
0.00 0.00 0.01 0.02 0.03 0.04 0.05 0.05 0.06 0.10 0.13 0.13 0.07 0.06 0.04 0.04 0.04 0.03 0.03 0.02 0.02 0.02 0.02 0.02 0.01 0.02 0.02 0.02 0.03 0.02 0.02 0.03 0.02 0.02 0.01 0.01 0.01 0.01 0.01 0.01 0.01 0.01 0.01
0.00 0.01 0.01 0.02 0.04 0.04 0.05 0.05 0.07 0.11 0.14 0.13 0.08 0.06 0.05 0.05 0.05 0.03 0.02 0.01 0.01 0.01 0.01 0.02 0.03 0.03 0.03 0.02 0.02 0.02 0.02 0.02 0.02 0.03 0.03 0.01 0.00 0.00 0.01 0.01 0.01 0.01 0.01
0.01 0.01 0.01 0.02 0.03 0.05 0.05 0.05 0.06 0.11 0.10 0.09 0.08 0.06 0.05 0.05 0.04 0.03 0.03 0.01 0.01 0.01 0.01 0.01 0.02 0.03 0.04 0.04 0.03 0.02 0.02 0.01 0.02 0.02 0.02 0.02 0.01 0.01 0.00 0.00 0.00 0.00 0.01
0.00 0.01 0.02 0.02 0.03 0.04 0.06 0.06 0.05 0.08 0.11 0.09 0.08 0.08 0.07 0.05 0.04 0.03 0.03 0.02 0.01 0.00 0.00 0.00 0.01 0.02 0.03 0.04 0.03 0.03 0.02 0.02 0.02 0.02 0.02 0.01 0.01 0.00 0.00 0.00 0.00 0.00 0.01
0.00 0.00 0.01 0.02 0.03 0.05 0.06 0.07 0.06 0.06 0.08 0.09 0.09 0.10 0.11 0.09 0.05 0.03 0.01 0.02 0.01 0.00 0.00 0.00 0.01 0.01 0.02 0.03 0.03 0.03 0.03 0.03 0.02 0.02 0.02 0.02 0.01 0.01 0.00 0.00 0.00 0.01 0.01
0.00 0.00 0.01 0.01 0.02 0.04 0.06 0.08 0.07 0.05 0.05 0.08 0.10 0.09 0.13 0.14 0.11 0.05 0.02 0.02 0.02 0.00 0.00 0.00 0.00 0.00 0.01 0.02 0.03 0.03 0.03 0.02 0.02 0.02 0.03 0.02 0.02 0.01 0.01 0.01 0.00 0.01 0.01
0.00 0.00 0.00 0.01 0.01 0.01 0.03 0.08 0.08 0.06 0.05 0.06 0.09 0.08 0.08 0.11 0.11 0.08 0.04 0.02 0.02 0.01 0.00 0.00 0.00 0.00 0.01 0.01 0.02 0.02 0.02 0.02 0.01 0.02 0.02 0.02 0.02 0.01 0.01 0.01 0.01 0.00 0.00
0.00 0.00 0.00 0.01 0.01 0.01 0.02 0.05 0.07 0.07 0.05 0.04 0.05 0.07 0.06 0.06 0.07 0.07 0.07 0.03 0.02 0.02 0.01 0.01 0.00 0.00 0.00 0.01 0.01 0.01 0.01 0.01 0.01 0.01 0.01 0.02 0.02 0.02 0.01 0.01 0.01 0.01 0.01
0.00 0.00 0.01 0.01 0.01 0.01 0.02 0.03 0.04 0.05 0.05 0.04 0.03 0.05 0.06 0.05 0.05 0.04 0.04 0.03 0.02 0.03 0.02 0.01 0.01 0.01 0.00 0.00 0.00 0.01 0.01 0.01 0.01 0.01 0.01 0.01 0.02 0.02 0.02 0.01 0.01 0.01 0.01
0.00 0.00 0.01 0.01 0.01 0.01 0.02 0.03 0.04 0.04 0.04 0.04 0.03 0.03 0.06 0.05 0.04 0.04 0.04 0.02 0.02 0.02 0.03 0.03 0.02 0.01 0.01 0.00 0.00 0.00 0.00 0.00 0.00 0.00 0.00 0.00 0.01 0.01 0.02 0.02 0.01 0.01 0.01
0.01 0.01 0.01 0.01 0.01 0.02 0.02 0.03 0.04 0.05 0.05 0.04 0.04 0.04 0.04 0.06 0.04 0.03 0.04 0.04 0.02 0.01 0.01 0.02 0.03 0.02 0.01 0.01 0.00 0.00 0.01 0.01 0.00 0.00 0.00 0.00 0.00 0.01 0.01 0.01 0.01 0.01 0.01
0.01 0.01 0.01 0.02 0.02 0.02 0.03 0.03 0.03 0.03 0.03 0.03 0.03 0.04 0.05 0.06 0.05 0.04 0.03 0.04 0.03 0.02 0.02 0.02 0.02 0.02 0.01 0.01 0.01 0.01 0.02 0.01 0.01 0.01 0.01 0.00 0.00 0.00 0.01 0.01 0.01 0.02 0.02
0.01 0.01 0.02 0.02 0.02 0.03 0.03 0.03 0.03 0.03 0.03 0.02 0.02 0.02 0.04 0.05 0.06 0.06 0.05 0.04 0.04 0.04 0.03 0.03 0.03 0.03 0.03 0.03 0.03 0.03 0.03 0.03 0.02 0.02 0.01 0.01 0.01 0.00 0.00 0.00 0.01 0.01 0.01
0.01 0.01 0.02 0.02 0.03 0.04 0.04 0.04 0.03 0.03 0.03 0.03 0.03 0.02 0.02 0.03 0.04 0.05 0.07 0.07 0.06 0.06 0.06 0.05 0.05 0.04 0.04 0.04 0.03 0.03 0.02 0.02 0.02 0.02 0.02 0.01 0.01 0.01 0.00 0.00 0.00 0.00 0.01
MSLP
1007.44 1007.41 1007.51 1007.76 1008.13 1008.59 1009.09 1009.57 1010.02 1010.42 1010.78 1011.13 1011.49 1011.87 1012.28 1012.71 1013.14 1013.55 1013.93 1014.27 1014.57 1014.86 1015.14 1015.43 1015.73 1016.03 1016.31 1016.56 1016.78 1016.96 1017.10 1017.23 1017.35 1017.48 1017.62 1017.75 1017.87 1017.94 1017.97 1017.94 1017.88 1017.79 1017.72
1007.37 1007.39 1007.56 1007.86 1008.28 1008.75 1009.24 1009.70 1010.12 1010.50 1010.85 1011.21 1011.60 1012.03 1012.50 1012.99 1013.46 1013.90 1014.28 1014.61 1014.90 1015.17 1015.44 1015.72 1016.02 1016.31 1016.59 1016.84 1017.04 1017.20 1017.32 1017.43 1017.55 1017.68 1017.83 1017.98 1018.11 1018.22 1018.26 1018.25 1018.20 1018.13 1018.07
1007.20 1007.30 1007.55 1007.93 1008.41 1008.91 1009.41 1009.85 1010.24 1010.59 1010.92 1011.28 1011.69 1012.15 1012.65 1013.17 1013.68 1014.13 1014.52 1014.84 1015.12 1015.39 1015.65 1015.94 1016.25 1016.55 1016.84 1017.08 1017.28 1017.42 1017.52 1017.62 1017.72 1017.85 1018.01 1018.18 1018.34 1018.48 1018.56 1018.59 1018.58 1018.54 1018.51
1006.96 1007.16 1007.51 1007.98 1008.52 1009.07 1009.57 1010.01 1010.37 1010.68 1010.99 1011.33 1011.74 1012.21 1012.73 1013.27 1013.79 1014.25 1014.64 1014.97 1015.26 1015.53 1015.81 1016.12 1016.45 1016.77 1017.07 1017.33 1017.52 1017.65 1017.74 1017.82 1017.91 1018.04 1018.20 1018.39 1018.58 1018.75 1018.88 1018.96 1018.99 1019.00 1019.01
1006.70 1007.01 1007.47 1008.03 1008.64 1009.23 1009.74 1010.15 1010.48 1010.76 1011.03 1011.35 1011.75 1012.22 1012.74 1013.29 1013.82 1014.29 1014.70 1015.04 1015.35 1015.65 1015.96 1016.30 1016.66 1017.02 1017.34 1017.60 1017.80 1017.93 1018.01 1018.07 1018.16 1018.28 1018.44 1018.64 1018.85 1019.04 1019.21 1019.33 1019.42 1019.47 1019.53
1006.47 1006.89 1007.44 1008.10 1008.77 1009.38 1009.90 1010.30 1010.59 1010.83 1011.07 1011.36 1011.73 1012.19 1012.72 1013.27 1013.81 1014.30 1014.73 1015.11 1015.45 1015.79 1016.14 1016.52 1016.92 1017.30 1017.65 1017.92 1018.12 1018.25 1018.33 1018.39 1018.46 1018.58 1018.73 1018.93 1019.14 1019.35 1019.53 1019.68 1019.80 1019.90 1019.99
1006.30 1006.80 1007.45 1008.17 1008.89 1009.54 1010.05 1010.43 1010.70 1010.91 1011.11 1011.38 1011.73 1012.18 1012.71 1013.27 1013.82 1014.33 1014.79 1015.20 1015.59 1015.97 1016.37 1016.79 1017.22 1017.62 1017.98 1018.26 1018.46 1018.59 1018.67 1018.73 1018.80 1018.91 1019.07 1019.25 1019.46 1019.65 1019.83 1019.99 1020.12 1020.24 1020.35
1006.17 1006.75 1007.47 1008.24 1009.00 1009.66 1010.17 1010.55 1010.80 1010.99 1011.18 1011.43 1011.78 1012.22 1012.74 1013.31 1013.87 1014.40 1014.90 1015.35 1015.77 1016.20 1016.63 1017.08 1017.52 1017.93 1018.29 1018.57 1018.77 1018.90 1018.99 1019.05 1019.14 1019.25 1019.40 1019.57 1019.76 1019.93 1020.09 1020.22 1020.34 1020.46 1020.58
1006.07 1006.69 1007.45 1008.26 1009.03 1009.71 1010.23 1010.61 1010.87 1011.07 1011.27 1011.52 1011.87 1012.32 1012.84 1013.40 1013.97 1014.52 1015.03 1015.51 1015.97 1016.42 1016.88 1017.34 1017.78 1018.18 1018.53 1018.79 1018.99 1019.12 1019.21 1019.30 1019.40 1019.53 1019.68 1019.85 1020.02 1020.17 1020.29 1020.39 1020.47 1020.57 1020.67
1005.95 1006.59 1007.35 1008.17 1008.95 1009.63 1010.18 1010.58 1010.88 1011.11 1011.34 1011.63 1011.99 1012.45 1012.97 1013.53 1014.10 1014.65 1015.17 1015.66 1016.14 1016.60 1017.07 1017.52 1017.95 1018.33 1018.65 1018.89 1019.07 1019.21 1019.31 1019.42 1019.55 1019.70 1019.88 1020.05 1020.21 1020.34 1020.43 1020.49 1020.55 1020.60 1020.69
1005.78 1006.39 1007.12 1007.92 1008.70 1009.39 1009.97 1010.42 1010.77 1011.07 1011.36 1011.70 1012.10 1012.57 1013.09 1013.64 1014.20 1014.74 1015.26 1015.75 1016.23 1016.70 1017.15 1017.59 1018.00 1018.35 1018.64 1018.86 1019.03 1019.15 1019.28 1019.41 1019.57 1019.76 1019.97 1020.16 1020.33 1020.46 1020.53 1020.57 1020.59 1020.62 1020.67
1005.54 1006.08 1006.75 1007.50 1008.25 1008.95 1009.56 1010.07 1010.51 1010.89 1011.27 1011.67 1012.13 1012.62 1013.15 1013.69 1014.23 1014.76 1015.26 1015.75 1016.22 1016.68 1017.13 1017.56 1017.94 1018.27 1018.53 1018.72 1018.87 1019.00 1019.13 1019.29 1019.48 1019.71 1019.95 1020.18 1020.37 1020.51 1020.59 1020.62 1020.63 1020.63 1020.67
1005.23 1005.67 1006.25 1006.92 1007.63 1008.32 1008.96 1009.53 1010.05 1010.54 1011.02 1011.51 1012.01 1012.55 1013.09 1013.63 1014.16 1014.67 1015.16 1015.64 1016.11 1016.57 1017.02 1017.44 1017.81 1018.12 1018.36 1018.54 1018.68 1018.80 1018.93 1019.10 1019.31 1019.57 1019.84 1020.11 1020.34 1020.51 1020.61 1020.66 1020.67 1020.68 1020.71
1004.89 1005.19 1005.65 1006.23 1006.87 1007.54 1008.19 1008.82 1009.43 1010.01 1010.58 1011.16 1011.74 1012.31 1012.88 1013.43 1013.95 1014.46 1014.95 1015.43 1015.91 1016.38 1016.84 1017.27 1017.65 1017.96 1018.20 1018.37 1018.50 1018.61 1018.73 1018.90 1019.11 1019.38 1019.67 1019.97 1020.23 1020.44 1020.59 1020.67 1020.71 1020.74 1020.76
1004.54 1004.70 1005.03 1005.49 1006.05 1006.67 1007.32 1007.99 1008.66 1009.32 1009.99 1010.65 1011.29 1011.92 1012.52 1013.09 1013.63 1014.15 1014.65 1015.15 1015.65 1016.15 1016.63 1017.09 1017.49 1017.82 1018.07 1018.25 1018.37 1018.47 1018.58 1018.72 1018.92 1019.17 1019.47 1019.77 1020.06 1020.31 1020.50 1020.63 1020.71 1020.76 1020.80
1004.20 1004.24 1004.43 1004.78 1005.24 1005.80 1006.43 1007.10 1007.81 1008.54 1009.27 1010.00 1010.71 1011.39 1012.04 1012.64 1013.21 1013.76 1014.29 1014.81 1015.34 1015.88 1016.40 1016.90 1017.34 1017.71 1017.99 1018.18 1018.31 1018.41 1018.49 1018.60 1018.76 1018.97 1019.24 1019.53 1019.82 1020.09 1020.32 1020.50 1020.62 1020.71 1020.77
1003.88 1003.81 1003.90 1004.13 1004.50 1004.99 1005.58 1006.24 1006.96 1007.72 1008.50 1009.27 1010.03 1010.77 1011.46 1012.11 1012.73 1013.31 1013.88 1014.44 1015.00 1015.57 1016.13 1016.67 1017.15 1017.57 1017.90 1018.13 1018.28 1018.38 1018.45 1018.52 1018.63 1018.79 1019.00 1019.25 1019.53 1019.80 1020.05 1020.26 1020.43 1020.55 1020.63
1003.52 1003.39 1003.40 1003.55 1003.85 1004.28 1004.82 1005.46 1006.17 1006.92 1007.71 1008.52 1009.31 1010.09 1010.83 1011.54 1012.20 1012.83 1013.43 1014.03 1014.62 1015.21 1015.80 1016.37 1016.90 1017.36 1017.74 1018.03 1018.22 1018.34 1018.41 1018.46 1018.52 1018.62 1018.77 1018.97 1019.20 1019.46 1019.71 1019.94 1020.13 1020.27 1020.38
1003.05 1002.91 1002.89 1003.01 1003.27 1003.65 1004.15 1004.75 1005.43 1006.17 1006.95 1007.76 1008.58 1009.39 1010.17 1010.92 1011.64 1012.31 1012.95 1013.57 1014.18 1014.78 1015.38 1015.97 1016.53 1017.04 1017.48 1017.83 1018.08 1018.24 1018.33 1018.38 1018.41 1018.46 1018.55 1018.69 1018.88 1019.10 1019.34 1019.57 1019.77 1019.94 1020.05
1002.39 1002.29 1002.29 1002.42 1002.67 1003.04 1003.52 1004.10 1004.74 1005.45 1006.21 1007.00 1007.82 1008.65 1009.48 1010.28 1011.04 1011.76 1012.43 1013.07 1013.67 1014.27 1014.86 1015.45 1016.03 1016.58 1017.07 1017.49 1017.81 1018.04 1018.18 1018.25 1018.28 1018.30 1018.35 1018.44 1018.59 1018.78 1018.99 1019.22 1019.43 1019.60 1019.73
1001.48 1001.45 1001.51 1001.68 1001.97 1002.37 1002.86 1003.42 1004.04 1004.72 1005.45 1006.22 1007.04 1007.88 1008.74 1009.59 1010.40 1011.16 1011.87 1012.52 1013.12 1013.70 1014.27 1014.84 1015.41 1015.98 1016.53 1017.02 1017.43 1017.74 1017.95 1018.07 1018.13 1018.16 1018.19 1018.25 1018.36 1018.53 1018.73 1018.95 1019.17 1019.35 1019.49
1000.27 1000.33 1000.48 1000.74 1001.11 1001.56 1002.09 1002.66 1003.27 1003.93 1004.63 1005.38 1006.19 1007.05 1007.95 1008.84 1009.71 1010.53 1011.27 1011.94 1012.54 1013.09 1013.63 1014.17 1014.74 1015.32 1015.90 1016.45 1016.95 1017.35 1017.65 1017.84 1017.96 1018.01 1018.06 1018.12 1018.23 1018.39 1018.59 1018.82 1019.05 1019.26 1019.42
998.79 998.94 999.19 999.56 1000.03 1000.57 1001.16 1001.77 1002.39 1003.04 1003.72 1004.46 1005.27 1006.15 1007.08 1008.04 1008.98 1009.86 1010.66 1011.36 1011.96 1012.51 1013.02 1013.53 1014.07 1014.65 1015.25 1015.85 1016.41 1016.90 1017.29 1017.56 1017.75 1017.86 1017.94 1018.03 1018.17 1018.35 1018.58 1018.85 1019.11 1019.35 1019.55
997.12 997.34 997.69 998.17 998.75 999.40 1000.07 1000.73 1001.39 1002.05 1002.72 1003.46 1004.28 1005.18 1006.16 1007.18 1008.20 1009.17 1010.04 1010.79 1011.43 1011.97 1012.47 1012.96 1013.47 1014.03 1014.64 1015.27 1015.87 1016.42 1016.88 1017.23 1017.49 1017.67 1017.81 1017.96 1018.15 1018.38 1018.67 1019.00 1019.33 1019.63 1019.87
995.38 995.64 996.07 996.65 997.35 998.11 998.87 999.61 1000.31 1000.99 1001.67 1002.41 1003.24 1004.17 1005.20 1006.29 1007.40 1008.46 1009.42 1010.24 1010.93 1011.51 1012.01 1012.48 1012.97 1013.51 1014.10 1014.72 1015.35 1015.93 1016.43 1016.85 1017.17 1017.41 1017.63 1017.85 1018.11 1018.43 1018.81 1019.22 1019.64 1020.02 1020.34
993.72 993.98 994.46 995.13 995.93 996.79 997.65 998.47 999.22 999.93 1000.63 1001.37 1002.21 1003.16 1004.24 1005.39 1006.58 1007.74 1008.79 1009.71 1010.47 1011.09 1011.61 1012.08 1012.55 1013.06 1013.62 1014.22 1014.83 1015.42 1015.94 1016.39 1016.76 1017.07 1017.35 1017.66 1018.01 1018.43 1018.92 1019.45 1019.97 1020.45 1020.85
Thickness
5717 5717 5716 5716 5716 5716 5716 5716 5716 5715 5715 5715 5716 5716 5716 5715 5715 5715 5715 5716 5716 5716 5716 5716 5715 5715 5715 5715 5715 5715 5715 5715 5715 5716 5716 5716 5716 5716 5716 5716 5716 5715 5716
5715 5713 5712 5711 5711 5711 5711 5711 5711 5711 5711 5711 5711 5711 5711 5711 5711 5711 5711 5711 5711 5712 5712 5712 5711 5711 5711 5710 5710 5710 5711 5711 5711 5712 5712 5712 5712 5712 5711 5711 5711 5711 5712
5711 5709 5707 5707 5707 5707 5707 5706 5706 5706 5706 5706 5706 5706 5706 5706 5706 5706 5706 5706 5707 5707 5707 5707 5707 5706 5706 5706 5706 5706 5706 5707 5707 5708 5708 5708 5708 5708 5707 5707 5707 5707 5707
5706 5704 5703 5702 5702 5702 5702 5701 5701 5701 5701 5701 5701 5701 5701 5701 5701 5702 5702 5702 5702 5702 5702 5702 5702 5702 5701 5701 5701 5702 5702 5703 5703 5704 5704 5704 5704 5704 5703 5703 5703 5703 5703
5700 5699 5697 5696 5696 5696 5696 5696 5696 5696 5696 5696 5696 5696 5696 5696 5696 5697 5697 5697 5697 5697 5697 5697 5697 5697 5696 5696 5696 5697 5697 5698 5699 5700 5700 5700 5700 5699 5699 5699 5699 5698 5698
5695 5693 5691 5691 5691 5690 5690 5690 5690 5690 5690 5690 5690 5691 5691 5691 5691 5692 5692 5692 5692 5692 5692 5692 5692 5692 5691 5691 5691 5692 5693 5694 5694 5695 5695 5695 5695 5695 5695 5694 5694 5694 5694
5688 5687 5685 5685 5684 5685 5684 5684 5684 5684 5685 5685 5685 5685 5685 5686 5686 5687 5687 5687 5687 5687 5686 5686 5687 5686 5686 5686 5686 5687 5687 5688 5689 5690 5690 5690 5690 5690 5690 5689 5689 5689 5689
5682 5681 5679 5678 5678 5678 5678 5678 5678 5678 5678 5679 5679 5679 5680 5680 5681 5681 5681 5681 5681 5681 5682 5681 5681 5681 5681 5681 5681 5681 5683 5683 5684 5685 5685 5685 5685 5685 5685 5684 5684 5684 5684
5676 5674 5672 5671 5671 5671 5671 5672 5672 5672 5672 5672 5673 5673 5673 5674 5675 5675 5675 5675 5676 5676 5676 5676 5675 5675 5675 5675 5676 5676 5677 5678 5679 5679 5679 5679 5679 5679 5679 5679 5679 5678 5678
5668 5667 5665 5665 5664 5664 5664 5665 5665 5665 5665 5666 5666 5666 5667 5667 5668 5668 5669 5669 5670 5670 5670 5670 5669 5669 5669 5669 5670 5671 5671 5672 5673 5673 5673 5673 5674 5674 5673 5673 5673 5672 5672
5659 5659 5658 5658 5657 5657 5657 5658 5658 5658 5658 5659 5659 5659 5660 5660 5660 5661 5662 5663 5663 5663 5663 5663 5663 5663 5663 5663 5663 5665 5665 5666 5667 5667 5666 5667 5667 5667 5667 5667 5667 5667 5666
5650 5650 5651 5651 5650 5650 5650 5650 5650 5650 5650 5651 5651 5652 5653 5653 5653 5654 5655 5655 5656 5656 5656 5656 5657 5657 5657 5657 5657 5658 5659 5660 5660 5660 5660 5660 5661 5661 5660 5660 5660 5660 5660
5642 5642 5642 5643 5642 5642 5642 5642 5642 5642 5642 5643 5644 5644 5645 5646 5646 5646 5646 5647 5648 5648 5648 5649 5649 5650 5650 5650 5651 5652 5652 5653 5653 5652 5653 5653 5654 5654 5654 5653 5653 5653 5654
5634 5634 5634 5634 5634 5634 5633 5634 5634 5634 5634 5635 5636 5637 5638 5638 5638 5638 5638 5639 5639 5640 5640 5641 5642 5642 5643 5644 5644 5645 5645 5645 5645 5645 5645 5645 5646 5646 5646 5646 5646 5646 5647
5627 5626 5626 5626 5625 5625 5625 5625 5627 5627 5627 5627 5628 5629 5630 5630 5630 5630 5630 5630 5631 5632 5632 5633 5634 5635 5635 5636 5636 5637 5637 5638 5637 5637 5637 5637 5638 5638 5638 5638 5639 5639 5639
5619 5618 5618 5618 5618 5617 5617 5618 5619 5619 5619 5620 5620 5621 5621 5622 5622 5622 5622 5622 5623 5623 5624 5625 5626 5627 5627 5628 5628 5629 5629 5629 5629 5629 5629 5629 5629 5629 5630 5630 5630 5631 5631
5612 5611 5610 5610 5610 5610 5610 5610 5611 5611 5612 5612 5613 5614 5613 5614 5613 5613 5613 5613 5614 5614 5615 5616 5617 5618 5618 5619 5619 5620 5621 5621 5621 5621 5621 5621 5621 5620 5621 5621 5622 5622 5622
5605 5603 5602 5602 5602 5602 5602 5602 5602 5603 5603 5604 5606 5606 5606 5605 5605 5605 5605 5604 5605 5605 5606 5607 5607 5608 5608 5609 5609 5611 5612 5612 5613 5613 5612 5612 5612 5612 5612 5612 5612 5613 5613
5598 5596 5594 5594 5594 5594 5593 5593 5593 5594 5595 5596 5597 5598 5597 5597 5597 5596 5595 5596 5596 5596 5597 5597 5597 5597 5598 5598 5600 5601 5602 5603 5603 5604 5603 5603 5603 5603 5603 5602 5603 5603 5603
5590 5589 5587 5586 5586 5585 5585 5585 5584 5585 5586 5587 5588 5588 5588 5588 5587 5587 5586 5586 5586 5586 5586 5587 5587 5588 5588 5588 5590 5591 5592 5593 5594 5594 5594 5594 5594 5594 5593 5593 5593 5593 5594
5582 5580 5579 5578 5578 5577 5576 5576 5575 5576 5577 5578 5579 5579 5579 5579 5578 5577 5577 5576 5576 5576 5577 5577 5577 5577 5577 5578 5577 5577 5580 5583 5583 5584 5585 5585 5585 5585 5584 5584 5584 5584 5584
5573 5572 5571 5570 5570 5570 5570 5569 5568 5568 5569 5569 5569 5570 5570 5569 5568 5567 5566 5566 5566 5566 5566 5566 5566 5566 5566 5566 5565 5564 5565 5568 5571 5574 5573 5573 5573 5574 5574 5574 5574 5574 5573
5565 5563 5563 5563 5563 5562 5562 5561 5560 5559 5559 5559 5560 5560 5560 5559 5558 5558 5557 5556 5556 5555 5555 5555 5555 5555 5554 5555 5555 5554 5554 5555 5556 5560 5561 5561 5562 5562 5563 5563 5564 5563 5562
5557 5555 5554 5554 5554 5554 5554 5553 5552 5551 5551 5551 5552 5552 5551 5549 5549 5548 5547 5546 5546 5545 5545 5545 5545 5546 5545 5543 5543 5544 5544 5544 5543 5543 5547 5549 5549 5550 5551 5552 5552 5552 5551
5549 5547 5546 5546 5546 5546 5546 5545 5544 5543 5544 5543 5543 5543 5542 5540 5539 5538 5537 5536 5536 5535 5535 5536 5535 5535 5535 5533 5532 5532 5532 5532 5532 5531 5533 5534 5536 5537 5539 5539 5540 5540 5540
5539 5538 5537 5537 5537 5537 5537 5537 5537 5536 5535 5534 5534 5533 5532 5531 5530 5529 5527 5527 5526 5525 5525 5525 5525 5525 5524 5523 5522 5521 5521 5519 5519 5519 5520 5521 5522 5525 5527 5528 5528 5528 5528